Location: Unspecified
(0.0000°N, 0.0000°E)
Time: 11:42:34
(UTC+02:00)

Vanguard 1 - Visible Passes

Search period start: 31 July 2016 00:00
Search period end: 10 August 2016 00:00
Orbit: 649 x 3835 km, 34.2° (Epoch: 29 July)

Date Brightness Start Highest point End Pass type
(mag) Time Alt. Az. Time Alt. Az. Time Alt. Az.
31 Jul 12.6 20:50:12 10° SW 21:10:19 40° SSE 21:20:00 21° E visible
31 Jul 12.0 23:17:49 10° SW 23:32:48 62° WSW 23:32:48 62° WSW visible
01 Aug 12.4 21:11:40 10° SW 21:32:39 51° SSE 21:40:53 28° E visible
01 Aug 12.2 23:40:02 10° WSW 23:53:42 51° W 23:53:42 51° W visible
02 Aug 12.1 21:33:11 10° SW 21:54:41 64° SSE 22:01:52 35° E visible
03 Aug 12.5 00:02:42 10° WSW 00:14:41 40° WNW 00:14:41 40° WNW visible
03 Aug 12.0 21:54:52 10° SW 22:16:25 80° SE 22:22:54 40° ENE visible
04 Aug 12.9 00:25:57 10° W 00:35:44 29° WNW 00:35:44 29° WNW visible
04 Aug 12.0 22:16:48 10° SW 22:37:55 82° NW 22:44:01 41° NE visible
05 Aug 13.2 00:49:58 10° W 00:56:50 20° WNW 00:56:50 20° WNW visible
05 Aug 12.7 20:10:49 10° SW 20:33:36 55° SSE 20:48:55 10° ENE visible
05 Aug 12.2 22:39:05 10° WSW 22:59:12 64° NW 23:05:08 38° NNE visible
06 Aug 13.4 01:15:10 10° WNW 01:17:58 13° WNW 01:17:58 13° WNW visible
06 Aug 12.6 20:32:18 10° SW 20:55:39 68° SE 21:10:39 10° ENE visible
06 Aug 12.5 23:01:50 10° WSW 23:20:22 49° NW 23:26:15 32° N visible
07 Aug 12.5 20:53:57 10° SW 21:17:27 83° SE 21:32:04 10° NE visible
07 Aug 12.7 23:25:11 10° WSW 23:41:31 36° NW 23:47:20 25° N visible
08 Aug 12.5 21:15:52 10° SW 21:39:02 81° NW 21:53:12 10° NE visible
08 Aug 13.0 23:49:17 10° W 00:02:46 26° NW 00:08:19 19° N visible
09 Aug 12.1 07:14:39 10° N 07:17:00 14° NE 07:19:38 10° ENE visible
09 Aug 12.7 21:38:08 10° WSW 22:00:28 65° NW 22:14:06 10° NE visible
